When you browse on this site, cookies collect data to enhance your experience and personalize the content and advertising you see.
Visit our Privacy Policy to learn more. By continuing to use the site, you agree to this use of cookies and data.
  • In Latvia
  • List of Countries
  • For 7 days
  • Water Temperature
  • Weather Map
  • Weather Widgets
  • user-avatar
    Login

    Hourly Weather Zdzieszowice

    Today, 27 May, Wednesday

    Time Temperature Precipitation Wind Pressure Humidity
    00:00 +8°C° 0 mm 2 mps 757 mmHg 95%
    01:00 +8°C° 0 mm 2 mps 757 mmHg 95%
    02:00 +8°C° 0 mm 2 mps 757 mmHg 96%
    03:00 +7°C° 0 mm 2 mps 757 mmHg 96%
    04:00 +7°C° 0 mm 2 mps 757 mmHg 97%
    05:00 +9°C° 0 mm 3 mps 757 mmHg 93%
    06:00 +10°C° 0 mm 3 mps 757 mmHg 88%
    07:00 +12°C° 0 mm 3 mps 757 mmHg 84%
    08:00 +13°C° 0 mm 4 mps 757 mmHg 76%
    09:00 +15°C° 0 mm 4 mps 757 mmHg 68%
    10:00 +17°C° 0 mm 4 mps 757 mmHg 60%
    11:00 +18°C° 0 mm 4 mps 756 mmHg 57%
    12:00 +19°C° 0 mm 4 mps 756 mmHg 55%
    13:00 +19°C° 0 mm 4 mps 755 mmHg 53%
    14:00 +19°C° 0 mm 4 mps 755 mmHg 54%
    15:00 +19°C° 0 mm 4 mps 755 mmHg 55%
    16:00 +19°C° 0 mm 4 mps 754 mmHg 56%
    17:00 +18°C° 0.1 mm 4 mps 754 mmHg 63%
    18:00 +16°C° 0.1 mm 3 mps 754 mmHg 70%
    19:00 +15°C° 0.1 mm 2 mps 754 mmHg 77%
    20:00 +14°C° 0 mm 2 mps 754 mmHg 80%
    21:00 +13°C° 0 mm 1 mps 754 mmHg 83%
    22:00 +11°C° 0 mm 1 mps 754 mmHg 86%
    23:00 +11°C° 0 mm 1 mps 754 mmHg 86%

    Tomorrow, 28 May, Thursday

    Time Temperature Precipitation Wind Pressure Humidity
    00:00 +11°C° 0 mm 1 mps 753 mmHg 87%
    01:00 +10°C° 0 mm 1 mps 753 mmHg 88%
    02:00 +10°C° 0 mm 1 mps 753 mmHg 88%
    03:00 +10°C° 0 mm 1 mps 753 mmHg 89%
    04:00 +9°C° 0 mm 2 mps 752 mmHg 89%
    05:00 +10°C° 0.2 mm 2 mps 752 mmHg 90%
    06:00 +12°C° 0.2 mm 2 mps 752 mmHg 90%
    07:00 +12°C° 0.2 mm 2 mps 752 mmHg 90%
    08:00 +11°C° 1 mm 3 mps 752 mmHg 90%
    09:00 +11°C° 1 mm 4 mps 752 mmHg 90%
    10:00 +9°C° 1 mm 5 mps 752 mmHg 90%
    11:00 +10°C° 0.3 mm 5 mps 752 mmHg 84%
    12:00 +12°C° 0.3 mm 5 mps 751 mmHg 77%
    13:00 +13°C° 0.3 mm 4 mps 751 mmHg 70%
    14:00 +14°C° 0.1 mm 4 mps 751 mmHg 68%
    15:00 +14°C° 0.1 mm 4 mps 751 mmHg 66%
    16:00 +15°C° 0.1 mm 4 mps 751 mmHg 64%
    17:00 +14°C° 0.1 mm 4 mps 751 mmHg 69%
    18:00 +13°C° 0.1 mm 3 mps 750 mmHg 75%
    19:00 +13°C° 0.1 mm 2 mps 750 mmHg 81%
    20:00 +11°C° 0 mm 3 mps 750 mmHg 84%
    21:00 +10°C° 0 mm 3 mps 751 mmHg 88%
    22:00 +9°C° 0 mm 3 mps 751 mmHg 92%
    23:00 +9°C° 0 mm 3 mps 751 mmHg 94%

    Day after tomorrow, 29 May, Friday

    Time Temperature Precipitation Wind Pressure Humidity
    00:00 +8°C° 0 mm 3 mps 750 mmHg 95%
    01:00 +8°C° 0 mm 3 mps 750 mmHg 97%
    02:00 +8°C° 0 mm 3 mps 750 mmHg 96%
    03:00 +7°C° 0 mm 4 mps 750 mmHg 96%
    04:00 +7°C° 0 mm 4 mps 750 mmHg 95%
    05:00 +7°C° 0 mm 4 mps 750 mmHg 93%
    06:00 +7°C° 0 mm 4 mps 750 mmHg 92%
    07:00 +8°C° 0 mm 4 mps 750 mmHg 90%
    08:00 +8°C° 0 mm 4 mps 750 mmHg 88%
    09:00 +10°C° 0 mm 4 mps 750 mmHg 85%
    10:00 +11°C° 0 mm 4 mps 751 mmHg 83%
    11:00 +12°C° 0.1 mm 5 mps 750 mmHg 79%
    12:00 +13°C° 0.1 mm 5 mps 750 mmHg 75%
    13:00 +14°C° 0.1 mm 5 mps 750 mmHg 71%
    14:00 +14°C° 0.1 mm 5 mps 749 mmHg 68%
    15:00 +15°C° 0.1 mm 6 mps 749 mmHg 66%
    16:00 +15°C° 0.1 mm 6 mps 749 mmHg 63%
    17:00 +14°C° 0 mm 5 mps 749 mmHg 65%
    18:00 +13°C° 0 mm 5 mps 749 mmHg 67%
    19:00 +12°C° 0 mm 4 mps 749 mmHg 70%
    20:00 +10°C° 0 mm 4 mps 749 mmHg 73%
    21:00 +9°C° 0 mm 3 mps 749 mmHg 77%
    22:00 +7°C° 0 mm 3 mps 749 mmHg 80%
    23:00 +7°C° 0 mm 3 mps 749 mmHg 82%

    30 May, Saturday

    Time Temperature Precipitation Wind Pressure Humidity
    00:00 +5°C° 0 mm 3 mps 749 mmHg 84%
    01:00 +4°C° 0 mm 3 mps 749 mmHg 86%
    02:00 +4°C° 0 mm 3 mps 749 mmHg 86%
    03:00 +4°C° 0 mm 3 mps 749 mmHg 86%
    04:00 +4°C° 0 mm 3 mps 749 mmHg 86%
    05:00 +5°C° 0 mm 4 mps 749 mmHg 82%
    06:00 +6°C° 0 mm 4 mps 748 mmHg 78%
    07:00 +7°C° 0 mm 5 mps 748 mmHg 74%
    08:00 +9°C° 0 mm 5 mps 748 mmHg 70%
    09:00 +10°C° 0 mm 5 mps 748 mmHg 65%
    10:00 +13°C° 0 mm 5 mps 748 mmHg 61%
    11:00 +13°C° 0 mm 5 mps 747 mmHg 61%
    12:00 +14°C° 0 mm 5 mps 747 mmHg 61%
    13:00 +14°C° 0 mm 5 mps 747 mmHg 61%
    14:00 +13°C° 0.1 mm 4 mps 746 mmHg 67%
    15:00 +12°C° 0.1 mm 4 mps 746 mmHg 74%
    16:00 +12°C° 0.1 mm 3 mps 746 mmHg 80%
    17:00 +11°C° 0.1 mm 3 mps 746 mmHg 84%
    18:00 +10°C° 0.1 mm 3 mps 746 mmHg 87%
    19:00 +9°C° 0.1 mm 3 mps 746 mmHg 91%
    20:00 +9°C° 0 mm 3 mps 746 mmHg 92%
    21:00 +9°C° 0 mm 3 mps 746 mmHg 92%
    22:00 +9°C° 0 mm 3 mps 746 mmHg 93%
    23:00 +8°C° 0.1 mm 4 mps 746 mmHg 93%

    31 May, Sunday

    Time Temperature Precipitation Wind Pressure Humidity
    00:00 +8°C° 0.1 mm 4 mps 745 mmHg 93%
    01:00 +7°C° 0.1 mm 4 mps 745 mmHg 93%
    02:00 +7°C° 0.1 mm 4 mps 745 mmHg 93%
    03:00 +7°C° 0.1 mm 4 mps 745 mmHg 94%
    04:00 +7°C° 0.1 mm 4 mps 745 mmHg 94%
    05:00 +7°C° 0.2 mm 4 mps 745 mmHg 94%
    06:00 +8°C° 0.2 mm 4 mps 745 mmHg 94%
    07:00 +8°C° 0.2 mm 4 mps 745 mmHg 94%
    08:00 +8°C° 0.2 mm 4 mps 745 mmHg 94%
    09:00 +10°C° 0.2 mm 4 mps 745 mmHg 94%
    10:00 +10°C° 0.2 mm 4 mps 745 mmHg 94%
    11:00 +10°C° 0.4 mm 3 mps 745 mmHg 94%
    12:00 +11°C° 0.4 mm 3 mps 745 mmHg 95%
    13:00 +11°C° 0.4 mm 3 mps 745 mmHg 95%
    14:00 +11°C° 0.2 mm 3 mps 745 mmHg 95%
    15:00 +11°C° 0.2 mm 4 mps 745 mmHg 95%
    16:00 +11°C° 0.2 mm 4 mps 745 mmHg 95%
    17:00 +12°C° 0.1 mm 4 mps 745 mmHg 95%
    18:00 +12°C° 0.1 mm 4 mps 745 mmHg 95%
    19:00 +12°C° 0.1 mm 4 mps 745 mmHg 95%
    20:00 +12°C° 0.2 mm 5 mps 745 mmHg 95%
    21:00 +12°C° 0.2 mm 5 mps 745 mmHg 95%
    22:00 +12°C° 0.2 mm 5 mps 745 mmHg 94%
    23:00 +12°C° 0.3 mm 5 mps 745 mmHg 95%

    1 June, Monday

    Time Temperature Precipitation Wind Pressure Humidity
    00:00 +10°C° 0.3 mm 5 mps 745 mmHg 96%
    01:00 +10°C° 0.3 mm 5 mps 745 mmHg 97%
    02:00 +12°C° 0.2 mm 5 mps 745 mmHg 97%
    03:00 +12°C° 0.2 mm 5 mps 745 mmHg 97%
    04:00 +12°C° 0.2 mm 4 mps 745 mmHg 98%
    05:00 +12°C° 0.1 mm 4 mps 745 mmHg 97%
    06:00 +13°C° 0.1 mm 3 mps 746 mmHg 97%
    07:00 +13°C° 0.1 mm 3 mps 746 mmHg 96%
    08:00 +14°C° 0 mm 3 mps 746 mmHg 94%
    09:00 +16°C° 0 mm 3 mps 746 mmHg 91%
    10:00 +17°C° 0 mm 3 mps 746 mmHg 89%
    11:00 +19°C° 0.4 mm 3 mps 746 mmHg 81%
    12:00 +20°C° 0.4 mm 4 mps 746 mmHg 74%
    13:00 +22°C° 0.4 mm 4 mps 746 mmHg 67%
    14:00 +22°C° 0.1 mm 5 mps 746 mmHg 64%
    15:00 +22°C° 0.1 mm 5 mps 746 mmHg 62%
    16:00 +22°C° 0.1 mm 6 mps 746 mmHg 59%
    17:00 +20°C° 0 mm 5 mps 746 mmHg 64%
    18:00 +18°C° 0 mm 4 mps 746 mmHg 68%
    19:00 +17°C° 0 mm 4 mps 746 mmHg 73%
    20:00 +14°C° 0 mm 3 mps 747 mmHg 75%
    21:00 +13°C° 0 mm 3 mps 747 mmHg 78%
    22:00 +11°C° 0 mm 3 mps 748 mmHg 80%
    23:00 +11°C° 0 mm 3 mps 748 mmHg 84%
    Show more